[[{"header":{"parameterUnit":"m.s-1","parameterCategory":1,"la1":30.2991,"la2":30.254,"lo1":-89.0895,"lo2":-89.0444,"dy":0.0017,"dx":0.0017,"nx":28,"ny":28,"refTime":"2023-11-12T09:00:00:Z","depth":0,"parameterNumber":2,"parameterNumberName":"U-component_of_WINDS"},"data":[0,0,0,0,0,0,0,0,0,0,0,0,0,0,0,0,0,0,0,0,0,0,0,0,0,0,0,0,0,0,0,0,0,0,0,0,0,0,0,0,0,0,0,0,0,0,0,0,0,0,0,0,0,0,0,0,0,0,-1.7564,-1.7564,0,-1.764,-1.7641,-1.7642,-1.7622,-1.7621,-1.7619,-1.7618,-1.7698,-1.7701,-1.7705,0,0,0,0,0,0,0,0,0,0,0,0,0,-1.7401,-1.7404,-1.7563,-1.7564,-1.7565,-1.764,-1.7641,-1.7642,-1.7623,-1.7621,-1.7619,-1.7617,-1.7697,-1.7701,-1.7705,0,0,0,0,0,0,0,0,0,0,0,0,0,-1.7474,-1.7405,-1.7563,-1.7565,-1.7565,-1.764,-1.7641,-1.7643,-1.7623,-1.7621,-1.7619,-1.7616,-1.7695,-1.77,-1.7706,-1.7784,0,0,-1.7722,-1.7724,0,0,0,0,0,0,0,0,-1.747,-1.748,-1.7563,-1.7565,-1.7566,-1.7619,-1.7613,-1.769,-1.7624,-1.7601,-1.7618,-1.7615,-1.7674,-1.7681,-1.77,-1.7788,-1.7791,-1.7722,-1.7725,-1.7728,-1.7729,0,0,0,0,0,0,0,-1.7465,-1.7477,-1.7594,-1.7565,-1.7566,-1.7562,-1.757,-1.7628,-1.7649,-1.7603,-1.7602,-1.7611,-1.7674,-1.7695,-1.7702,-1.7792,-1.7722,-1.7727,-1.773,-1.7732,-1.795,-1.7952,0,0,0,0,0,0,-1.7459,-1.7473,-1.7591,-1.7596,-1.7511,-1.7567,-1.7575,-1.7605,-1.7649,-1.7653,-1.7613,-1.761,-1.7687,-1.7696,-1.7704,-1.7801,-1.7728,-1.7733,-1.7736,-1.7947,-1.795,-1.7953,0,0,0,0,0,0,-1.7456,-1.747,-1.7588,-1.7534,-1.7549,-1.7572,-1.7605,-1.7607,-1.7628,-1.7656,-1.766,-1.7631,-1.7685,-1.7697,-1.7765,-1.7803,-1.7735,-1.774,-1.7944,-1.7948,-1.7952,-1.7993,0,0,0,0,0,0,-1.7451,-1.7469,-1.7498,-1.7535,-1.7552,-1.7647,-1.7607,-1.761,-1.7637,-1.7634,-1.7674,-1.7678,-1.7685,-1.7757,-1.777,-1.7809,-1.7744,-1.7941,-1.7946,-1.795,-1.7988,-1.7997,-1.8005,0,0,0,0,0,-1.7445,-1.7507,-1.75,-1.7514,-1.7589,-1.7649,-1.7659,-1.7665,-1.764,-1.7671,-1.7689,-1.7677,-1.7796,-1.7764,-1.7778,-1.782,-1.7938,-1.7944,-1.795,-1.7984,-1.7996,-1.8005,0,0,0,0,0,0,-1.7474,-1.7511,-1.7504,-1.7579,-1.7611,-1.7646,-1.7684,-1.7677,-1.7717,-1.7712,-1.7718,-1.7727,-1.7797,-1.7815,-1.7778,-1.7899,-1.7864,-1.7873,-1.7885,-1.7896,-1.7904,-1.79,-1.7748,0,0,0,0,0,-1.7489,-1.7534,-1.7564,-1.7627,-1.7644,-1.7661,-1.7688,-1.769,-1.7723,-1.7736,-1.7759,-1.7793,-1.7838,-1.7867,-1.791,-1.799,-1.7999,-1.8025,-1.8034,-1.8041,-1.805,-1.8095,-1.8108,-1.7972,-1.7972,-1.7972,0,0,-1.7521,-1.7547,-1.7575,-1.7634,-1.7659,-1.7706,-1.7673,-1.7724,-1.7759,-1.7744,-1.781,-1.7828,-1.7865,-1.794,-1.7974,-1.7957,-1.8089,-1.8049,-1.8054,-1.8059,-1.8102,-1.8115,-1.8126,-1.7976,-1.7975,-1.7975,0,0,-1.7603,-1.7626,-1.7682,-1.7708,-1.7746,-1.7758,-1.7771,-1.7807,-1.7818,-1.7884,-1.7874,-1.7916,-1.7994,-1.8021,-1.8046,-1.8139,-1.813,-1.8153,-1.8199,-1.8243,-1.8254,-1.8263,-1.8299,-1.8311,-1.816,-1.816,-1.8161,0,-1.7638,-1.7708,-1.7712,-1.7765,-1.7792,-1.778,-1.7837,-1.7862,-1.7913,-1.7932,-1.7912,-1.801,-1.8034,-1.8116,-1.8139,-1.8158,-1.8175,-1.8149,-1.8252,-1.8261,-1.827,-1.8304,-1.8317,-1.8163,-1.8163,-1.8163,-1.8162,0,-1.775,-1.7799,-1.784,-1.7889,-1.792,-1.7975,-1.7988,-1.8019,-1.8019,-1.8032,-1.81,-1.8129,-1.8178,-1.8197,-1.8197,-1.8279,-1.8268,-1.825,-1.8216,-1.8286,-1.8318,-1.8331,-1.8167,-1.8166,-1.8165,-1.8165,0,0,-1.7853,-1.7904,-1.7919,-1.7942,-1.7984,-1.8022,-1.8076,-1.8125,-1.8152,-1.8187,-1.8234,-1.83,-1.8284,-1.8311,-1.8314,-1.8352,-1.8427,-1.833,-1.8331,-1.8349,-1.8522,-1.8537,-1.8551,-1.842,-1.8422,-1.8424,-1.8519,0,-1.7941,-1.8037,-1.8042,-1.813,-1.8176,-1.8166,-1.8213,-1.8244,-1.8258,-1.83,-1.8315,-1.8363,-1.8337,-1.8354,-1.8391,-1.841,-1.8462,-1.8403,-1.8465,-1.8468,-1.8459,-1.8568,-1.8583,-1.8672,-1.8531,-1.8534,-1.8535,0,-1.8056,-1.8095,-1.8187,-1.8223,-1.8243,-1.8286,-1.8331,-1.837,-1.8406,-1.8413,-1.8444,-1.8442,-1.8498,-1.846,-1.854,-1.8499,-1.8525,-1.8538,-1.8542,-1.855,-1.8507,-1.8581,-1.87,-1.8714,-1.8554,-1.8553,-1.8551,0,-1.8125,-1.82,-1.8266,-1.8285,-1.8328,-1.8359,-1.8378,-1.8411,-1.844,-1.848,-1.8499,-1.8544,-1.857,-1.8605,-1.8615,-1.8586,-1.8695,-1.8657,-1.8704,-1.8704,-1.873,-1.8728,-1.8857,-1.8742,-1.8742,-1.8742,-1.8742,0,-1.8223,-1.8281,-1.8298,-1.8338,-1.8402,-1.8408,-1.8472,-1.8489,-1.8519,-1.8563,-1.8555,-1.8597,-1.8607,-1.8651,-1.8659,-1.8724,-1.8735,-1.8744,-1.8746,-1.8746,-1.8746,-1.8765,-1.876,-1.8746,-1.8745,-1.8744,-1.8743,0,-1.8312,-1.8325,-1.8396,-1.8431,-1.8441,-1.8488,-1.8518,-1.8557,-1.857,-1.8626,-1.864,-1.866,-1.8712,-1.8725,-1.8786,-1.8791,-1.887,-1.8864,-1.8858,-1.8859,-1.8906,-1.8902,-1.9053,-1.9074,-1.8944,-1.8945,-1.8946,0,-1.8375,-1.8419,-1.8459,-1.8488,-1.8509,-1.8556,-1.8586,-1.8593,-1.8624,-1.8668,-1.8703,-1.8753,-1.8794,-1.8877,-1.8898,-1.8945,-1.8942,-1.8992,-1.8949,-1.8949,-1.8946,-1.8944,-1.8949,-1.9001,-1.9002,-1.9003,-1.9004,0,-1.8486,-1.8491,-1.8534,-1.858,-1.8615,-1.8652,-1.8686,-1.8711,-1.8723,-1.8759,-1.8811,-1.8843,-1.8906,-1.8957,-1.9004,-1.9025,-1.9018,-1.9017,-1.9031,-1.9033,-1.9028,-1.9033,-1.8883,-1.9014,-1.9013,-1.9012,-1.9012,-1.9011,-1.8566,-1.8605,-1.864,-1.8688,-1.8715,-1.8748,-1.8787,-1.8805,-1.8849,-1.8901,-1.8902,-1.896,-1.8995,-1.9058,-1.9081,-1.9127,-1.9112,-1.9131,-1.9137,-1.9142,-1.9148,-1.9019,-1.9135,-1.9135,-1.9135,-1.9135,-1.9134,0,-1.8679,-1.87,-1.8745,-1.8794,-1.8833,-1.8821,-1.8859,-1.8892,-1.8943,-1.8976,-1.9017,-1.9078,-1.9127,-1.9152,-1.9201,-1.9233,-1.9231,-1.9246,-1.9245,-1.925,-1.9157,-1.9141,-1.9247,-1.9247,-1.9247,-1.9247,-1.9247,-1.9247,-1.8742,-1.8809,-1.8817,-1.8898,-1.8919,-1.8975,-1.8998,-1.9029,-1.9056,-1.9124,-1.9165,-1.9181,-1.9211,-1.9263,-1.9308,-1.9314,-1.9333,-1.9351,-1.9355,-1.9268,-1.9257,-1.9246,-1.9231,-1.9354,-1.9354,-1.9445,-1.9446,-1.9447]},{"header":{"parameterUnit":"m.s-1","parameterCategory":1,"la1":30.2991,"la2":30.254,"lo1":-89.0895,"lo2":-89.0444,"dy":0.0017,"dx":0.0017,"nx":28,"ny":28,"refTime":"2023-11-12T09:00:00:Z","depth":0,"parameterNumber":3,"parameterNumberName":"V-component_of_WINDS"},"data":[0,0,0,0,0,0,0,0,0,0,0,0,0,0,0,0,0,0,0,0,0,0,0,0,0,0,0,0,0,0,0,0,0,0,0,0,0,0,0,0,0,0,0,0,0,0,0,0,0,0,0,0,0,0,0,0,0,0,-3.7521,-3.7522,0,-3.7607,-3.7608,-3.7609,-3.7584,-3.7583,-3.7581,-3.7579,-3.7664,-3.7668,-3.7671,0,0,0,0,0,0,0,0,0,0,0,0,0,-3.7332,-3.7335,-3.7521,-3.7522,-3.7523,-3.7607,-3.7608,-3.7609,-3.7585,-3.7583,-3.758,-3.7578,-3.7663,-3.7667,-3.7672,0,0,0,0,0,0,0,0,0,0,0,0,0,-3.7415,-3.7336,-3.7521,-3.7521,-3.7522,-3.7606,-3.7608,-3.7609,-3.7585,-3.7583,-3.758,-3.7577,-3.7661,-3.7667,-3.7672,-3.7761,0,0,-3.769,-3.7693,0,0,0,0,0,0,0,0,-3.741,-3.7422,-3.752,-3.7521,-3.7522,-3.7582,-3.7572,-3.766,-3.7586,-3.7561,-3.7579,-3.7576,-3.7639,-3.7646,-3.7668,-3.7765,-3.7768,-3.7691,-3.7694,-3.7697,-3.7698,0,0,0,0,0,0,0,-3.7405,-3.7418,-3.7555,-3.7521,-3.7523,-3.7516,-3.7525,-3.7589,-3.7613,-3.7563,-3.7561,-3.7572,-3.7639,-3.7662,-3.767,-3.777,-3.7691,-3.7696,-3.7699,-3.7702,-3.7943,-3.7946,0,0,0,0,0,0,-3.7399,-3.7414,-3.7552,-3.7557,-3.7459,-3.7521,-3.7531,-3.7566,-3.7613,-3.7617,-3.7574,-3.7571,-3.7654,-3.7663,-3.7673,-3.778,-3.7697,-3.7702,-3.7705,-3.794,-3.7944,-3.7947,0,0,0,0,0,0,-3.7395,-3.7411,-3.7548,-3.7485,-3.7502,-3.7527,-3.7566,-3.7569,-3.7592,-3.7621,-3.7625,-3.7594,-3.7652,-3.7664,-3.7739,-3.7782,-3.7705,-3.771,-3.7937,-3.7941,-3.7945,-3.7994,0,0,0,0,0,0,-3.7389,-3.741,-3.7445,-3.7486,-3.7506,-3.7615,-3.7569,-3.7572,-3.7603,-3.7599,-3.7641,-3.7645,-3.7651,-3.7731,-3.7745,-3.7789,-3.7715,-3.7933,-3.7939,-3.7944,-3.7989,-3.8,-3.8009,0,0,0,0,0,-3.7383,-3.7454,-3.7447,-3.7463,-3.755,-3.7618,-3.7629,-3.7635,-3.7606,-3.7641,-3.7659,-3.7644,-3.7775,-3.7739,-3.7755,-3.7801,-3.793,-3.7937,-3.7944,-3.7984,-3.7997,-3.8009,0,0,0,0,0,0,-3.7416,-3.746,-3.7452,-3.7539,-3.7575,-3.7613,-3.7657,-3.7648,-3.7692,-3.7687,-3.7691,-3.7701,-3.7778,-3.7796,-3.7755,-3.7888,-3.7848,-3.7858,-3.7874,-3.7887,-3.7896,-3.7891,-3.7719,0,0,0,0,0,-3.7433,-3.7486,-3.7521,-3.7594,-3.7613,-3.7632,-3.7662,-3.7664,-3.77,-3.7715,-3.7739,-3.7775,-3.7824,-3.7856,-3.7903,-3.7991,-3.8,-3.803,-3.804,-3.8048,-3.8057,-3.8106,-3.812,-3.7969,-3.7969,-3.7968,0,0,-3.747,-3.75,-3.7533,-3.7602,-3.763,-3.7684,-3.7645,-3.7703,-3.7743,-3.7724,-3.7797,-3.7815,-3.7855,-3.7937,-3.7974,-3.7955,-3.8101,-3.8057,-3.8063,-3.8068,-3.8114,-3.8128,-3.8141,-3.7973,-3.7972,-3.7972,0,0,-3.7565,-3.7593,-3.7658,-3.7687,-3.773,-3.7742,-3.7758,-3.7798,-3.781,-3.7884,-3.787,-3.7916,-3.8001,-3.803,-3.8056,-3.8161,-3.8148,-3.8176,-3.8229,-3.8276,-3.8287,-3.8298,-3.8336,-3.835,-3.8184,-3.8184,-3.8185,0,-3.7604,-3.7686,-3.7692,-3.7752,-3.7782,-3.7768,-3.7833,-3.7861,-3.7916,-3.7937,-3.7915,-3.8021,-3.8047,-3.8136,-3.8161,-3.8182,-3.82,-3.8172,-3.8285,-3.8296,-3.8306,-3.8342,-3.8357,-3.8188,-3.8187,-3.8187,-3.8187,0,-3.7733,-3.779,-3.7836,-3.7893,-3.7928,-3.799,-3.8004,-3.8039,-3.8037,-3.8051,-3.8126,-3.8156,-3.8209,-3.823,-3.8228,-3.8319,-3.8305,-3.8284,-3.8244,-3.8324,-3.8358,-3.8372,-3.8192,-3.8191,-3.819,-3.8189,0,0,-3.7852,-3.791,-3.7928,-3.7953,-3.8,-3.8043,-3.8104,-3.8157,-3.8187,-3.8225,-3.8276,-3.8348,-3.8329,-3.8358,-3.8359,-3.84,-3.8482,-3.8374,-3.8375,-3.8394,-3.8584,-3.86,-3.8616,-3.8474,-3.8476,-3.8478,-3.8581,0,-3.7951,-3.806,-3.8067,-3.8165,-3.8217,-3.8205,-3.8257,-3.8291,-3.8306,-3.8351,-3.8366,-3.8418,-3.8388,-3.8406,-3.8446,-3.8464,-3.8521,-3.8456,-3.8521,-3.8523,-3.8512,-3.8634,-3.8652,-3.8747,-3.8594,-3.8596,-3.8598,0,-3.8082,-3.8126,-3.823,-3.827,-3.8292,-3.834,-3.8389,-3.8432,-3.847,-3.8477,-3.851,-3.8506,-3.8567,-3.8524,-3.8608,-3.8564,-3.8591,-3.8603,-3.8607,-3.8614,-3.8566,-3.8645,-3.8778,-3.8792,-3.8619,-3.8617,-3.8616,0,-3.8159,-3.8244,-3.8318,-3.834,-3.8387,-3.8421,-3.8443,-3.8478,-3.8509,-3.8551,-3.8571,-3.8619,-3.8646,-3.8683,-3.8691,-3.8659,-3.8775,-3.8733,-3.8783,-3.8783,-3.8809,-3.8807,-3.8948,-3.8824,-3.8824,-3.8824,-3.8823,0,-3.827,-3.8334,-3.8353,-3.8399,-3.847,-3.8476,-3.8546,-3.8565,-3.8596,-3.8644,-3.8634,-3.8679,-3.8687,-3.8733,-3.8739,-3.8808,-3.882,-3.8827,-3.8828,-3.8829,-3.8828,-3.8847,-3.8841,-3.8828,-3.8827,-3.8826,-3.8825,0,-3.8369,-3.8384,-3.8464,-3.8503,-3.8514,-3.8565,-3.8597,-3.864,-3.8653,-3.8714,-3.8728,-3.8749,-3.8803,-3.8814,-3.8877,-3.8881,-3.8964,-3.8958,-3.8952,-3.8952,-3.9001,-3.8997,-3.916,-3.9182,-3.9043,-3.9044,-3.9045,0,-3.8439,-3.8489,-3.8533,-3.8565,-3.8589,-3.864,-3.8672,-3.868,-3.8713,-3.876,-3.8797,-3.885,-3.8893,-3.8979,-3.8999,-3.9047,-3.9043,-3.9097,-3.905,-3.9049,-3.9044,-3.9042,-3.9047,-3.9106,-3.9107,-3.9109,-3.911,0,-3.8563,-3.8568,-3.8616,-3.8666,-3.8706,-3.8745,-3.8783,-3.8809,-3.8821,-3.886,-3.8915,-3.8949,-3.9014,-3.9066,-3.9115,-3.9135,-3.9125,-3.9124,-3.9138,-3.914,-3.9135,-3.9139,-3.8977,-3.912,-3.9119,-3.9119,-3.9118,-3.9117,-3.865,-3.8694,-3.8732,-3.8786,-3.8815,-3.885,-3.8893,-3.8912,-3.8959,-3.9014,-3.9014,-3.9075,-3.911,-3.9174,-3.9198,-3.9244,-3.9227,-3.9248,-3.9253,-3.9258,-3.9264,-3.9127,-3.9253,-3.9252,-3.9252,-3.9252,-3.9252,0,-3.8774,-3.8798,-3.8847,-3.8901,-3.8943,-3.893,-3.8971,-3.9007,-3.9061,-3.9095,-3.9138,-3.9202,-3.9252,-3.9276,-3.9326,-3.9359,-3.9355,-3.9372,-3.937,-3.9375,-3.9275,-3.9259,-3.9374,-3.9374,-3.9374,-3.9374,-3.9374,-3.9374,-3.8843,-3.8917,-3.8926,-3.9014,-3.9037,-3.9098,-3.9122,-3.9154,-3.9182,-3.9254,-3.9297,-3.9313,-3.9342,-3.9394,-3.944,-3.9446,-3.9465,-3.9484,-3.9487,-3.9394,-3.9382,-3.937,-3.9354,-3.9488,-3.9488,-3.9583,-3.9584,-3.9584]}]]